This is the latest recevied weather packets stored in our database for station/object KF0JHJ. If no packets are shown the sender has not sent any weather packets the latest 10 day(s).
| Time | Temp. | Humidity | Pressure | Rain* | Wind** | Luminosity | Snow |
|---|---|---|---|---|---|---|---|
| 1777898874 | 14.44° C | 58% | 995.9 hPa | - | - | 48 W/m² | - |
| 1777898571 | 14.44° C | 58% | 996 hPa | - | - | 46 W/m² | - |
| 1777898268 | 13.89° C | 57% | 996.1 hPa | - | - | 54 W/m² | - |
| 1777897965 | 13.89° C | 58% | 996.1 hPa | - | - | 42 W/m² | - |
| 1777897661 | 13.89° C | 57% | 995.8 hPa | - | - | 37 W/m² | - |
| 1777897358 | 13.89° C | 56% | 995.7 hPa | - | - | 34 W/m² | - |
| 1777897054 | 13.89° C | 56% | 995.6 hPa | - | - | 34 W/m² | - |
| 1777896751 | 13.89° C | 55% | 995.7 hPa | - | - | 31 W/m² | - |
| 1777896448 | 13.89° C | 54% | 995.4 hPa | - | - | 29 W/m² | - |
| 1777896145 | 13.89° C | 54% | 995.2 hPa | - | - | 26 W/m² | - |
| 1777895843 | 13.33° C | 54% | 995.1 hPa | - | - | 23 W/m² | - |
| 1777895540 | 13.33° C | 55% | 995.1 hPa | - | - | 23 W/m² | - |
| 1777895238 | 12.78° C | 55% | 995.2 hPa | - | - | 21 W/m² | - |
| 1777894935 | 12.78° C | 56% | 995.1 hPa | - | - | 17 W/m² | - |
| 1777894633 | 12.22° C | 56% | 994.7 hPa | - | - | 16 W/m² | - |
| 1777894329 | 12.22° C | 57% | 994.7 hPa | - | - | 12 W/m² | - |
| 1777894027 | 11.67° C | 58% | 994.8 hPa | - | - | 11 W/m² | - |
| 1777893723 | 11.67° C | 57% | 994.6 hPa | - | - | 7 W/m² | - |
| 1777893419 | 11.67° C | 57% | 994.7 hPa | - | - | 4 W/m² | - |
| 1777893115 | 12.22° C | 57% | 994.8 hPa | - | - | 1 W/m² | - |
| 1777892813 | 12.22° C | 57% | 994.9 hPa | - | - | 0 W/m² | - |
| 1777892509 | 12.22° C | 57% | 994.7 hPa | - | - | 0 W/m² | - |
| 1777892204 | 11.67° C | 57% | 994.5 hPa | - | - | 0 W/m² | - |
| 1777891901 | 11.67° C | 57% | 994.7 hPa | - | - | 0 W/m² | - |
| 1777891599 | 12.22° C | 56% | 994.5 hPa | - | - | 0 W/m² | - |
* Rain since midnight (hover to see other rain measurements)
** Current wind speed in m/s (hover to see current wind gust speed)